Change the Weather History Date:

Thursday, April 11, 2013

  Actual Average Record
Temperature  
Mean Temperature 44 °F 46 °F  
Max Temperature 53 °F 54 °F 79 °F (2004)
Min Temperature 35 °F 38 °F 27 °F (2001)
Degree Days  
Heating Degree Days 21 19  
Month to date heating degree days 169 212  
Since 1 July heating degree days 4445 4705  
Cooling Degree Days 0 0  
Month to date cooling degree days 0 0  
Year to date cooling degree days 0 0  
Moisture  
Dew Point 37 °F    
Average Humidity 67    
Maximum Humidity 83    
Minimum Humidity 50    
Precipitation  
Precipitation 0.06 in 0.27 in 2.20 in (1982)
Month to date precipitation 5.31 3.19  
Year to date precipitation 43.41 38.98  
Sea Level Pressure  
Sea Level Pressure 30.30 in    
Wind  
Wind Speed 4 mph (WNW)    
Max Wind Speed 14 mph    
Max Gust Speed 18 mph    
Visibility 7 miles    
Events Rain    
T = Trace of Precipitation, MM = Missing Value Source: NWS Daily Summary

Daily Weather History Graph

Daily Weather History Graph

Search for Another Location

Airport or City:

Trip Planner

Search our weather history database for the weather conditions in past years. The results will help you decide how hot, cold, wet, or windy it might be!

Date:

Astronomy

Apr. 11, 2013 Rise Set
Actual Time 6:35 AM PDT 8:03 PM PDT
Civil Twilight 6:03 AM PDT 8:35 PM PDT
Nautical Twilight 5:24 AM PDT 9:14 PM PDT
Astronomical Twilight 4:42 AM PDT 9:57 PM PDT
Moon 7:04 AM PDT (4/11) 9:52 PM PDT (4/11)
Length of Visible Light 14h 31m
Length of Day
13h 27m
New Moon, 2% of the Moon is Illuminated
Apr 11
New Moon
Apr 18
First Quarter
Apr 25
Full
May 2
Last Quarter
May 9
New

Hourly Weather History & Observations

Time (PDT) Temp. Windchill Dew Point Humidity Pressure Visibility Wind Dir Wind Speed Gust Speed Precip Events Conditions
12:53 AM 46.9 °F - 43.0 °F 86% 30.30 in 4.0 mi Calm Calm - 0.01 in Rain Light Rain
1:34 AM 46.4 °F 44.3 °F 42.8 °F 87% 30.30 in 2.5 mi West 4.6 mph - 0.01 in Rain Light Rain
1:38 AM 46.4 °F 43.5 °F 42.8 °F 87% 30.30 in 3.0 mi WNW 5.8 mph - 0.01 in Rain Light Rain
1:53 AM 46.0 °F 43.9 °F 42.1 °F 86% 30.30 in 5.0 mi West 4.6 mph - 0.01 in   Overcast
2:16 AM 46.4 °F 43.5 °F 42.8 °F 87% 30.30 in 9.0 mi WSW 5.8 mph - N/A   Overcast
2:40 AM 46.4 °F 44.3 °F 42.8 °F 87% 30.30 in 4.0 mi WNW 4.6 mph - 0.00 in Rain Light Rain
2:53 AM 46.0 °F 41.9 °F 41.0 °F 83% 30.30 in 4.0 mi West 8.1 mph - 0.01 in Rain Light Rain
3:25 AM 46.4 °F 44.3 °F 41.0 °F 81% 30.30 in 3.0 mi WNW 4.6 mph - 0.01 in Rain Light Rain
3:29 AM 44.6 °F 43.1 °F 41.0 °F 87% 30.30 in 2.5 mi West 3.5 mph - 0.02 in Rain Light Rain
3:41 AM 44.6 °F - 41.0 °F 87% 30.29 in 4.0 mi Calm Calm - 0.02 in Rain Light Rain
3:53 AM 45.0 °F - 41.0 °F 86% 30.30 in 10.0 mi Calm Calm - 0.02 in   Overcast
4:53 AM 45.0 °F - 39.9 °F 82% 30.31 in 9.0 mi Calm Calm - N/A   Overcast
5:53 AM 45.0 °F - 39.0 °F 80% 30.31 in 9.0 mi Calm Calm - N/A   Overcast
6:35 AM 44.6 °F 43.1 °F 37.4 °F 76% 30.31 in 4.0 mi NW 3.5 mph - 0.02 in Rain Light Rain
6:53 AM 44.1 °F - 37.9 °F 79% 30.32 in 8.0 mi Calm Calm - 0.02 in   Overcast
7:53 AM 45.0 °F - 37.9 °F 76% 30.32 in 7.0 mi Calm Calm - N/A   Scattered Clouds
8:53 AM 46.0 °F - 37.9 °F 73% 30.33 in 7.0 mi Calm Calm - N/A   Scattered Clouds
9:53 AM 48.2 °F - 37.4 °F 66% 30.33 in 7.0 mi WNW 6.9 mph - N/A   Scattered Clouds
10:53 AM 46.9 °F - 36.0 °F 66% 30.34 in 7.0 mi WNW 6.9 mph - 0.00 in Rain Light Rain
11:53 AM 48.9 °F - 35.1 °F 59% 30.35 in 7.0 mi West 8.1 mph 17.3 mph 0.00 in   Mostly Cloudy
12:53 PM 48.0 °F - 36.0 °F 63% 30.33 in 7.0 mi WNW 6.9 mph - 0.00 in Rain Light Rain
1:53 PM 50.0 °F - 35.1 °F 57% 30.32 in 7.0 mi West 8.1 mph - 0.00 in   Overcast
2:53 PM 52.0 °F - 35.1 °F 53% 30.31 in 8.0 mi WNW 11.5 mph - N/A   Overcast
3:53 PM 52.0 °F - 35.1 °F 53% 30.31 in 8.0 mi West 11.5 mph 18.4 mph N/A   Mostly Cloudy
4:53 PM 51.1 °F - 33.1 °F 50% 30.29 in 8.0 mi SW 8.1 mph - N/A   Mostly Cloudy
5:53 PM 48.0 °F - 33.1 °F 56% 30.29 in 8.0 mi NW 3.5 mph - N/A   Partly Cloudy
6:53 PM 48.0 °F - 33.1 °F 56% 30.27 in 8.0 mi West 8.1 mph - N/A   Mostly Cloudy
7:53 PM 45.0 °F 43.5 °F 32.0 °F 60% 30.26 in 8.0 mi NW 3.5 mph - N/A   Partly Cloudy
8:53 PM 39.9 °F - 33.1 °F 77% 30.25 in 9.0 mi Calm Calm - N/A   Scattered Clouds
9:53 PM 39.0 °F - 33.1 °F 79% 30.24 in 9.0 mi Calm Calm - N/A   Clear
10:53 PM 37.0 °F - 32.0 °F 82% 30.23 in 9.0 mi Calm Calm - N/A   Clear
11:53 PM 36.0 °F - 30.9 °F 82% 30.22 in 9.0 mi Calm Calm - N/A   Clear